STARLINK-32279, 61003

Orbit data source: Space-Track

STARLINK-32279, 61003 is a payload satellite owned by SpaceX/Seattle (US) in LEO that was launched on Thu, 05 Sep 2024 UTC via an FALCON 9 launch vehicle from the Air Force Eastern Test Range (AFETR). Payload-class satellites include a variety of spacecraft equipped with specific instruments for various scientific and technological missions. These include communications satellites like Starlink; space stations such as the ISS; scientific satellites like the Hubble; Earth observation satellites from companies like Planet Labs, Umbra, and HawkEye 360; GPS; miniature CubeSats for education and research; and military/defense satellites.

Loading next visibility...
Identifier
61003, 2024-158P
Orbit
LEO
Last TLE update
8 hours ago
Origin
Manufacturer
SpaceX/Seattle
Mission
Operational Commercial Communications
Bus & Motor
STARLINK V2M, Unknown motor
Mass
730 kg wet, ~700 kg dry
Launch date (UTC)
2024-09-05 (10 months ago)
Launch vehicle
FALCON 9
Launch site
Air Force Eastern Test Range (AFETR)
Object type
Payload
Rocket body
Debris
Shape & HBR
Box + 2 Pan, 29 m
Radar Cross Section
33.884 m², Large (>1 m²)

Expand to show TLE details & history

TLE from 8 hours ago
0 STARLINK-32279
1 61003U 24158P   25183.88073324 -.00000312  00000-0  15851-5 0  9996
2 61003  53.1603 145.9206 0001361  93.6547 266.4610 15.30190588 47402
Epoch: 2025-07-02T21:08Z
TLE epoch observation values (Epoch: 2025-07-02T21:08:15.351Z)
Latitude
Longitude
-92.29884°
Altitude
476.201 km
Speed
7.629 km/s
True Right ascension
09h 43m 40s
True Declination
0° 00' 00"
Sunlit
Object was in daylight at epoch
Visualization orbit readout
Latitude
-20.25336°
Longitude
-109.75123°
Altitude
481.349 km
Speed
7.625 km/s
Apparent Right ascension
06h 53m 11s
Apparent Declination
-33° 02' 22"
Sunlit
Object is in daylight
Visualization observer readout
Local Sidereal Time
16:37:16
Azimuth
273.405° WNW
Elevation
-62.008°
Doppler factor
1
Orbital elements
Apogee altitude
476.432 km
Perigee altitude
474.567 km
Semi-major axis
6,853.637 km
Eccentricity
0.00014
Inclination
53.1603°
RAAN
145.9206°
Arg. of periapsis
93.6547°
True anomaly
Unknown
Mean anomaly
266.461°
Eccentric anomaly
Unknown
Mean motion
3.82527 °/min
Orbital period
94.11 mins
BSTAR
0.0000015851
Loading maneuver chart data...
Loading SW <> Apogee altitude chart data...
Loading historical data...
Loading historical data...
Loading historical data...
Loading historical data...
Loading historical data...
Loading historical data...
Loading historical data...

STARLINK-32279 Visibility forecast

Observer location: undefined°, undefined°

Span
Click to sort rows by Start time (UTC) header in descending order
Start Az.
Max El. time (UTC)
Max El. Az.
Max El.
End time (UTC)
End Az.
4 mins2025-07-03 05:24:51.713Z344.426° N2025-07-03 05:26:51.713Z20.695° NNE15.971°2025-07-03 05:28:51.713Z56.608° ENE
6 mins2025-07-03 07:02:51.713Z316.008° NNW2025-07-03 07:04:51.713Z347.058° N41.934°2025-07-03 07:08:51.713Z124.332° SE
5 mins2025-07-03 23:58:51.713Z219.387° SW2025-07-04 00:00:51.713Z112.01° ESE43.864°2025-07-04 00:03:51.713Z53.589° ENE
|